[[{"header":{"parameterUnit":"m.s-1","parameterCategory":1,"la1":30.2991,"la2":30.254,"lo1":-89.0895,"lo2":-89.0444,"dy":0.0017,"dx":0.0017,"nx":28,"ny":28,"refTime":"2026-01-07T03:00:00:Z","depth":0,"parameterNumber":2,"parameterNumberName":"U-component_of_WINDS"},"data":[0,0,0,0,0,0,0,0,0,0,0,0,0,0,0,0,0,0,0,0,0,0,0,0,0,0,0,0,0,0,0,0,0,0,0,0,0,0,0,0,0,0,0,0,0,0,0,0,0,0,0,0,0,0,0,0,0,0,-3.0379,-3.038,0,-3.0481,-3.0482,-3.0483,-3.0502,-3.0502,-3.0501,-3.05,-3.0602,-3.0605,-3.0608,0,0,0,0,0,0,0,0,0,0,0,0,0,-3.02,-3.0203,-3.0379,-3.038,-3.0381,-3.0481,-3.0482,-3.0483,-3.0503,-3.0502,-3.0501,-3.05,-3.06,-3.0604,-3.0609,0,0,0,0,0,0,0,0,0,0,0,0,0,-3.0287,-3.0204,-3.0379,-3.0403,-3.0406,-3.048,-3.0482,-3.0484,-3.0503,-3.0502,-3.05,-3.0499,-3.0599,-3.0604,-3.0609,-3.0665,0,0,-3.0625,-3.0627,0,0,0,0,0,0,0,0,-3.0282,-3.0294,-3.0398,-3.0401,-3.0405,-3.0478,-3.0456,-3.0544,-3.0503,-3.0466,-3.05,-3.0499,-3.0561,-3.0569,-3.0591,-3.067,-3.0674,-3.0625,-3.0629,-3.0631,-3.0632,0,0,0,0,0,0,0,-3.0276,-3.0289,-3.0419,-3.04,-3.0404,-3.0408,-3.042,-3.0473,-3.0519,-3.0469,-3.0471,-3.0483,-3.0563,-3.0586,-3.0593,-3.0676,-3.0625,-3.063,-3.0633,-3.0635,-3.0807,-3.0809,0,0,0,0,0,0,-3.0266,-3.0284,-3.0416,-3.0422,-3.034,-3.0413,-3.0425,-3.0456,-3.0518,-3.0527,-3.0484,-3.0483,-3.0578,-3.0587,-3.0597,-3.0667,-3.0631,-3.0636,-3.0639,-3.0806,-3.0807,-3.0809,0,0,0,0,0,0,-3.0262,-3.0277,-3.0412,-3.0354,-3.0371,-3.0417,-3.0451,-3.0458,-3.0481,-3.053,-3.0538,-3.0499,-3.0577,-3.059,-3.0649,-3.0671,-3.0638,-3.0643,-3.0804,-3.0806,-3.0808,-3.0807,0,0,0,0,0,0,-3.0257,-3.0276,-3.0298,-3.0354,-3.0374,-3.0462,-3.0453,-3.0461,-3.0491,-3.0491,-3.0546,-3.0554,-3.0577,-3.0641,-3.0654,-3.0677,-3.0647,-3.0802,-3.0805,-3.0808,-3.0805,-3.0809,-3.0812,0,0,0,0,0,-3.025,-3.0292,-3.0299,-3.0314,-3.0402,-3.0463,-3.0474,-3.0501,-3.0492,-3.0514,-3.0546,-3.0552,-3.0667,-3.0647,-3.0661,-3.0687,-3.0801,-3.0804,-3.0807,-3.0804,-3.0808,-3.0812,0,0,0,0,0,0,-3.0236,-3.03,-3.0308,-3.037,-3.0411,-3.0466,-3.0494,-3.0505,-3.0548,-3.0547,-3.0578,-3.059,-3.0647,-3.0673,-3.0649,-3.0745,-3.0733,-3.074,-3.0726,-3.073,-3.0734,-3.0725,-3.0651,0,0,0,0,0,-3.024,-3.0284,-3.0338,-3.0387,-3.0408,-3.0448,-3.0475,-3.0493,-3.0536,-3.0553,-3.0589,-3.063,-3.0676,-3.0705,-3.0749,-3.081,-3.0823,-3.0835,-3.0839,-3.0841,-3.0846,-3.0881,-3.0887,-3.082,-3.082,-3.082,0,0,-3.0249,-3.0289,-3.0315,-3.0386,-3.042,-3.0464,-3.0462,-3.0509,-3.0543,-3.056,-3.0618,-3.0646,-3.0694,-3.0754,-3.0783,-3.0778,-3.0868,-3.0846,-3.0847,-3.0851,-3.0885,-3.0891,-3.0897,-3.0822,-3.0822,-3.0821,0,0,-3.0287,-3.0323,-3.0368,-3.0403,-3.0455,-3.0482,-3.0493,-3.0547,-3.0567,-3.0626,-3.064,-3.0681,-3.0758,-3.0792,-3.082,-3.0875,-3.0882,-3.0888,-3.0905,-3.0939,-3.0944,-3.0949,-3.0968,-3.0975,-3.0893,-3.0893,-3.0893,0,-3.0291,-3.0359,-3.039,-3.0437,-3.0468,-3.0488,-3.0534,-3.0566,-3.0629,-3.065,-3.0644,-3.0743,-3.0777,-3.0846,-3.086,-3.0882,-3.0895,-3.0881,-3.0941,-3.0947,-3.0951,-3.097,-3.0977,-3.0893,-3.0893,-3.0893,-3.0893,0,-3.0361,-3.0409,-3.0439,-3.0502,-3.0536,-3.0583,-3.062,-3.0651,-3.0666,-3.0694,-3.0754,-3.0796,-3.085,-3.0868,-3.0883,-3.094,-3.0935,-3.0935,-3.0923,-3.0958,-3.0976,-3.0983,-3.0894,-3.0894,-3.0894,-3.0894,0,0,-3.039,-3.0472,-3.0482,-3.0511,-3.0572,-3.0609,-3.0657,-3.0711,-3.0737,-3.0781,-3.0822,-3.0888,-3.0889,-3.0921,-3.094,-3.097,-3.1011,-3.0966,-3.0968,-3.0972,-3.1076,-3.1075,-3.1082,-3.1017,-3.1018,-3.102,-3.1072,0,-3.0436,-3.0522,-3.0552,-3.0623,-3.0668,-3.0689,-3.0731,-3.0772,-3.08,-3.0841,-3.0872,-3.0919,-3.0917,-3.0936,-3.0966,-3.0999,-3.1031,-3.0996,-3.1054,-3.1056,-3.104,-3.1092,-3.109,-3.1137,-3.1079,-3.108,-3.1081,0,-3.0499,-3.0545,-3.0621,-3.0678,-3.0698,-3.0735,-3.0788,-3.0827,-3.0875,-3.0894,-3.093,-3.0948,-3.0999,-3.0986,-3.1056,-3.1032,-3.1058,-3.1078,-3.108,-3.1085,-3.1069,-3.1097,-3.1153,-3.1159,-3.1093,-3.1092,-3.1091,0,-3.0512,-3.0594,-3.065,-3.0675,-3.0742,-3.0767,-3.0797,-3.0844,-3.0875,-3.0921,-3.0942,-3.0993,-3.1021,-3.106,-3.1091,-3.1079,-3.1159,-3.1149,-3.1175,-3.1174,-3.1189,-3.1187,-3.1248,-3.1208,-3.1208,-3.1208,-3.1208,0,-3.0558,-3.0603,-3.0657,-3.0691,-3.0743,-3.0778,-3.0828,-3.0859,-3.0901,-3.0942,-3.0963,-3.1001,-3.1041,-3.1084,-3.1109,-3.1163,-3.1176,-3.1192,-3.1197,-3.1189,-3.1187,-3.1205,-3.1202,-3.121,-3.121,-3.1209,-3.1209,0,-3.058,-3.0618,-3.0681,-3.074,-3.0757,-3.0792,-3.0843,-3.0877,-3.0907,-3.0959,-3.0973,-3.1019,-3.1071,-3.1107,-3.1173,-3.119,-3.1249,-3.1255,-3.1233,-3.1235,-3.1259,-3.1256,-3.1333,-3.1345,-3.1298,-3.1298,-3.1299,0,-3.0606,-3.0642,-3.0706,-3.0736,-3.0765,-3.0812,-3.0845,-3.0881,-3.0914,-3.0973,-3.1,-3.1054,-3.1099,-3.1181,-3.122,-3.1271,-3.1278,-3.1301,-3.1285,-3.1276,-3.1277,-3.1274,-3.1278,-3.1303,-3.1303,-3.1304,-3.1304,0,-3.0649,-3.0666,-3.0712,-3.0766,-3.0805,-3.0849,-3.0892,-3.0915,-3.0959,-3.0995,-3.1049,-3.1084,-3.1153,-3.1206,-3.1262,-3.1291,-3.1305,-3.1309,-3.1318,-3.1308,-3.1294,-3.1302,-3.1238,-3.1306,-3.1306,-3.1306,-3.1306,-3.1306,-3.0673,-3.0706,-3.0757,-3.0808,-3.0846,-3.0887,-3.0922,-3.0958,-3.1004,-3.1063,-3.1082,-3.1138,-3.1187,-3.1263,-3.1294,-3.1339,-3.1337,-3.1349,-3.1352,-3.1355,-3.1354,-3.1289,-3.1349,-3.1349,-3.1349,-3.1349,-3.1349,0,-3.0716,-3.075,-3.0797,-3.0859,-3.09,-3.0911,-3.0961,-3.0994,-3.1043,-3.1088,-3.1133,-3.1195,-3.1248,-3.1292,-3.1346,-3.1374,-3.1381,-3.1386,-3.1384,-3.1391,-3.1353,-3.134,-3.1379,-3.1379,-3.1379,-3.1379,-3.1379,-3.1379,-3.0743,-3.08,-3.0824,-3.09,-3.0934,-3.099,-3.1017,-3.1055,-3.1092,-3.1161,-3.1205,-3.1234,-3.128,-3.1338,-3.1386,-3.1398,-3.1417,-3.142,-3.1433,-3.1397,-3.1393,-3.139,-3.1377,-3.1424,-3.1424,-3.1467,-3.1468,-3.1468]},{"header":{"parameterUnit":"m.s-1","parameterCategory":1,"la1":30.2991,"la2":30.254,"lo1":-89.0895,"lo2":-89.0444,"dy":0.0017,"dx":0.0017,"nx":28,"ny":28,"refTime":"2026-01-07T03:00:00:Z","depth":0,"parameterNumber":3,"parameterNumberName":"V-component_of_WINDS"},"data":[0,0,0,0,0,0,0,0,0,0,0,0,0,0,0,0,0,0,0,0,0,0,0,0,0,0,0,0,0,0,0,0,0,0,0,0,0,0,0,0,0,0,0,0,0,0,0,0,0,0,0,0,0,0,0,0,0,0,2.9567,2.9569,0,2.9683,2.9685,2.9686,2.9734,2.9734,2.9734,2.9733,2.9852,2.9855,2.9858,0,0,0,0,0,0,0,0,0,0,0,0,0,2.9388,2.9391,2.9567,2.9569,2.957,2.9683,2.9685,2.9686,2.9734,2.9734,2.9734,2.9733,2.9851,2.9855,2.9859,0,0,0,0,0,0,0,0,0,0,0,0,0,2.9481,2.9392,2.9567,2.9608,2.9613,2.9683,2.9685,2.9687,2.9734,2.9734,2.9734,2.9733,2.9849,2.9854,2.9859,2.9898,0,0,2.9875,2.9877,0,0,0,0,0,0,0,0,2.9476,2.9488,2.96,2.9605,2.9611,2.9694,2.9665,2.9758,2.9734,2.9688,2.9733,2.9733,2.98,2.9809,2.9831,2.9903,2.9908,2.9875,2.9878,2.988,2.9882,0,0,0,0,0,0,0,2.9469,2.9483,2.9613,2.9602,2.9608,2.9621,2.9633,2.9683,2.9744,2.9692,2.9696,2.9709,2.9802,2.9826,2.9834,2.991,2.9875,2.9879,2.9883,2.9885,3.0023,3.0023,0,0,0,0,0,0,2.9456,2.9477,2.961,2.9617,2.9541,2.9624,2.9638,2.9668,2.9744,2.9755,2.9709,2.9711,2.9818,2.9828,2.9839,2.9891,2.988,2.9885,2.9888,3.0022,3.0023,3.0024,0,0,0,0,0,0,2.9452,2.9468,2.9605,2.9548,2.9567,2.9628,2.966,2.967,2.9694,2.9757,2.9768,2.9722,2.9818,2.9832,2.9883,2.9896,2.9887,2.9892,3.0021,3.0022,3.0023,2.9995,0,0,0,0,0,0,2.9447,2.9466,2.9481,2.9548,2.9569,2.9647,2.9661,2.9673,2.9703,2.9706,2.9772,2.9783,2.9819,2.9876,2.9888,2.9903,2.9896,3.0021,3.0022,3.0023,2.9995,2.9994,2.9994,0,0,0,0,0,2.944,2.9467,2.9481,2.9497,2.9589,2.9648,2.966,2.9701,2.9703,2.9719,2.976,2.9781,2.9892,2.9881,2.9895,2.9911,3.002,3.0022,3.0023,2.9995,2.9995,2.9994,0,0,0,0,0,0,2.9398,2.9476,2.9493,2.9542,2.9588,2.9656,2.9677,2.9699,2.9744,2.9746,2.9794,2.9809,2.9857,2.9889,2.9875,2.9954,2.9958,2.9962,2.9931,2.9932,2.9931,2.9923,2.99,0,0,0,0,0,2.9395,2.9436,2.9502,2.9539,2.9561,2.9615,2.9642,2.967,2.9719,2.9739,2.9783,2.983,2.9877,2.9906,2.9951,2.9999,3.0016,3.0018,3.0018,3.0017,3.0021,3.0052,3.0054,3.0028,3.0028,3.0028,0,0,2.9388,2.9436,2.9458,2.9532,2.9571,2.9613,2.9631,2.9674,2.9706,2.9745,2.9798,2.9832,2.9888,2.9939,2.9964,2.9967,3.0032,3.0019,3.0018,3.0022,3.0053,3.0056,3.0058,3.0029,3.0029,3.0029,0,0,2.9397,2.9437,2.9473,2.9512,2.9572,2.9608,2.9616,2.9681,2.9706,2.976,2.9791,2.983,2.9907,2.9947,2.9977,3.0004,3.0026,3.0018,3.0017,3.0046,3.0048,3.005,3.0062,3.0066,3.0021,3.0021,3.0021,0,2.9381,2.9446,2.9489,2.9532,2.9564,2.9602,2.9641,2.9676,2.9747,2.9769,2.9772,2.9872,2.9912,2.9975,2.9982,3.0004,3.0017,3.0011,3.0044,3.0047,3.005,3.0062,3.0066,3.002,3.002,3.002,3.002,0,2.9424,2.9469,2.9491,2.956,2.9595,2.9635,2.9685,2.9715,2.9741,2.9777,2.9832,2.9882,2.994,2.9956,2.9981,3.0023,3.0024,3.0035,3.004,3.005,3.0063,3.0067,3.0018,3.0018,3.0019,3.0019,0,0,2.9409,2.9503,2.9511,2.9544,2.9613,2.9649,2.9691,2.9749,2.9775,2.9822,2.9861,2.9927,2.9939,2.9973,3.0002,3.0028,3.005,3.0037,3.0039,3.0039,3.0102,3.0095,3.0099,3.0064,3.0065,3.0066,3.0099,0,2.9429,2.9507,2.9549,2.961,2.9653,2.9691,2.9729,2.9776,2.9811,2.9854,2.9893,2.994,2.995,2.9972,2.9999,3.0041,3.0063,3.0039,3.0102,3.0103,3.0088,3.0105,3.0097,3.0125,3.0103,3.0104,3.0105,0,2.9462,2.9512,2.9577,2.9644,2.9664,2.9697,2.9754,2.9794,2.9849,2.9873,2.9913,2.9942,2.999,2.9991,3.0059,3.0042,3.007,3.0095,3.0097,3.0106,3.0105,3.0116,3.0135,3.014,3.0112,3.0112,3.0111,0,2.9447,2.953,2.9581,2.9607,2.9686,2.9709,2.9743,2.9798,2.983,2.9881,2.9903,2.9957,2.9988,3.003,3.0074,3.0071,3.0139,3.0143,3.0162,3.0161,3.0175,3.0174,3.02,3.019,3.019,3.019,3.019,0,2.9466,2.9505,2.9575,2.9607,2.9653,2.9701,2.9745,2.9782,2.9831,2.9871,2.9907,2.9944,2.9999,3.0044,3.0078,3.0131,3.0144,3.0166,3.0175,3.0164,3.0161,3.0183,3.0183,3.0191,3.0191,3.0191,3.0191,0,2.9457,2.9505,2.9564,2.9634,2.9653,2.9684,2.9745,2.9778,2.9816,2.9866,2.9881,2.9941,2.9995,3.0043,3.0115,3.0139,3.0193,3.0203,3.0175,3.018,3.0197,3.0195,3.024,3.025,3.0231,3.0231,3.0231,0,2.9466,2.9498,2.9573,2.9603,2.9636,2.9683,2.9718,2.9767,2.9801,2.9868,2.9893,2.9951,2.9999,3.0084,3.0135,3.019,3.0203,3.0215,3.0212,3.0201,3.0206,3.0205,3.0209,3.0215,3.0215,3.0215,3.0215,0,2.9478,2.9502,2.955,2.9607,2.9648,2.9695,2.9743,2.9766,2.9825,2.9862,2.9918,2.9956,3.0031,3.0088,3.015,3.0185,3.0211,3.0216,3.0224,3.0213,3.0196,3.0208,3.0176,3.0215,3.0215,3.0215,3.0215,3.0215,2.948,2.9511,2.957,2.9623,2.9665,2.971,2.9746,2.9789,2.9837,2.9902,2.9928,2.9987,3.0044,3.013,3.0166,3.0213,3.0218,3.0228,3.0231,3.0233,3.0233,3.0188,3.0224,3.0224,3.0224,3.0224,3.0224,0,2.9496,2.9536,2.9585,2.9653,2.9695,2.9716,2.9772,2.9806,2.9857,2.9908,2.9956,3.0023,3.0079,3.0135,3.0195,3.0222,3.0235,3.0236,3.0235,3.0244,3.0224,3.0212,3.0224,3.0224,3.0224,3.0224,3.0224,3.0224,2.9509,2.9564,2.9594,2.9671,2.9711,2.9769,2.9799,2.9842,2.9884,2.9957,3.0004,3.004,3.0094,3.0159,3.0212,3.0227,3.0248,3.0246,3.0265,3.0245,3.0245,3.0244,3.0234,3.025,3.025,3.0281,3.0282,3.0282]}]]